Starlink 30107

operational
NORAD ID: 56287 Int'l Des: 2023-056 Owner: SPXS Country: US Constellation: starlink
LEOCIRCULAR

Starlink 30107について

説明を読み込み中...

リアルタイム位置

3D地球を読み込み中...

次回通過

高度履歴

Altitude vs Time

uPlot chart will show altitude changes over time

軌道要素

1 56287U 23056B 25304.73420850 .00000411 00000-0 45486-4 0 9994
2 56287 43.0013 191.1457 0001089 271.4291 88.6426 15.02534345140677
Epoch: Oct 31, 2025 • Age: 22 hours

現在のステータス

高度 562.9 km
速度 7.58 km/s
衛星直下点 -19.03°S, 117.39°E
打ち上げ日 Apr 19, 2023
運用期間 2.5 years
タイプ internet

技術仕様

分類 Payload
質量 730.00 kg
乾燥質量 700.00 kg
総質量 730.00 kg
長さ 0.30 m
直径 4.10 m
スパン 29.00 m
形状 Box + pan
製造者 SPXS
バスタイプ Starlink V2M
フェーズステータス In Orbit
所有者/国 SPXS/US

大規模コンステレーション

Loading constellations...